SYRACUSE 4A

Last updated on Fri Dec 19 2025 00:02:53 GMT+0000 (Coordinated Universal Time)

1 49333U 21095B 25352.00600649 .00000160 00000+0 00000+0 0 9996 2 49333 0.0178 343.3682 0001642 292.4475 218.7338 1.00269548 16133
UTC large
Height (km)
Speed (km/s)
/
Latitude / Longitude
Inclination (degrees)
Orbital Period (minutes)
Azimuth
Elevation
Range (km)
Doppler Factor

Next 0 passes for location: London (51.5072 / 0.1276)

Sorry there are no passes over London.